Regional Weather Roundup
Issued by NWS

Home | Current Version | Previous Version | Graphics & Text | Print | Product List | Glossary On
Versions: 1 2 3 4 5 6 7 8 9 10 11 12 13 14 15 16 17 18 19 20 21 22 23 24 25 26 27 28 29 30 31 32 33 34 35 36 37 38 39 40 41 42 43 44 45 46 47 48 49
000
ASUS45 KBOU 210907
RWRCO

WEATHER ROUNDUP FOR COLORADO
NATIONAL WEATHER SERVICE DENVER/BOULDER CO
300 AM MDT SUN SEP 21 2014

NOTE: "FAIR" INDICATES FEW OR NO CLOUDS BELOW 12000 FEET WITH NO
SIGNIFICANT WEATHER AND/OR OBSTRUCTIONS TO VISIBILITY.

COZ001>005-013-030-031-211000-
...NORTHWEST COLORADO...

CITY           SKY/WX    TMP DP  RH WIND       PRES   REMARKS
CRAIG          CLEAR     41  35  79 CALM      30.25F
HAYDEN         CLEAR     54  34  47 SE12      30.26F
MEEKER         CLEAR     52  37  56 E7        30.25S
MOUNT WERNER   NOT AVBL
STEAMBOAT SPGS CLEAR     49  39  68 CALM      30.30F
WALDEN         CLEAR     41  34  75 S3        30.41F
$$

COZ006>008-011-211000-
...WEST CENTRAL VALLEYS...

CITY           SKY/WX    TMP DP  RH WIND       PRES   REMARKS
GRAND JUNCTION PTCLDY    71  41  33 E13       30.11S
MONTROSE       MOCLDY    69  46  43 SE5       30.22R
EAGLE          PTCLDY    54  43  66 CALM      30.31F
RIFLE          CLEAR     57  42  57 CALM      30.19S
DELTA          PTCLDY    67  45  45 NE7       30.17F
NUCLA          PTCLDY    70  45  40 SE8G24    30.27R
$$

COZ017>023-064>068-211000-
...SOUTHWEST COLORADO...

CITY           SKY/WX    TMP DP  RH WIND       PRES   REMARKS
DURANGO        TSTM      58  54  86 N8        30.33R
CORTEZ         RAIN      60  56  86 NE14      30.27R
PAGOSA SPRINGS RAIN      56  53  90 NW13G18   30.39S
TELLURIDE      NOT AVBL
WOLF CREEK PAS CLOUDY    41  41 100 NE9       30.66S
$$

COZ009-010-012-014-032>034-037-058>063-211000-
...CENTRAL COLORADO...

CITY           SKY/WX    TMP DP  RH WIND       PRES   REMARKS
ASPEN          PTCLDY    61  41  47 SE15G22   30.35F
BUENA VISTA    CLOUDY    53  50  90 CALM      30.49F
COPPER MTN     MOCLDY    46  36  66 S24G32    30.65F
BERTHOUD PASS  CLOUDY    36  34  93 SE28      30.71F
COTTONWOOD PAS CLOUDY    50  45  81 CALM      30.59F
GUNNISON       MOCLDY    55  43  62 N10       30.42F
KREMMLING      PTCLDY    52  37  58 CALM      30.38F
LEADVILLE      PTCLDY    42  41  96 E6        30.56F
MONARCH PASS   SNOW      41  41 100 NE16      30.78F VSB<1/4
SALIDA         CLOUDY    56  53  89 W3        30.54F
SUNLIGHT       CLEAR     50  39  66 SE5       30.56F
WILKERSON PASS NOT AVBL
$$

COZ069>075-211000-
...SAN LUIS VALLEY/SANGRE DE CRISTO MOUNTAINS...

CITY           SKY/WX    TMP DP  RH WIND       PRES   REMARKS
ALAMOSA        CLOUDY    56  46  69 W3        30.40S
LA VETA PASS   NOT AVBL
SAGUACHE       NOT AVBL
$$

COZ035-036-038>040-211000-
...NORTHERN COLORADO FRONT RANGE...

CITY           SKY/WX    TMP DP  RH WIND       PRES   REMARKS
DENVER INTL AP CLOUDY    60  46  59 E12       30.34F
DMNS CITY PARK   N/A     62  53  70 NE2       30.33S
AURORA         CLOUDY    61  49  65 E7        30.35F
FRONT RANGE AP CLOUDY    61  46  59 E10       30.35F
ERIE MUNI ARPT CLOUDY    61  45  56 N8        30.34R
BOULDER MUN AP CLOUDY    61  45  55 N7        30.36R
CENTENNIAL     CLOUDY    59  55  87 SE8       30.34F
BROOMFIELD     CLOUDY    63  52  67 N13       30.36S
FORT COLLINS   CLOUDY    61  43  51 N7        30.38S
LONGMONT       CLOUDY    64  46  52 N8        30.38S
$$

COZ041-046-047-076>085-087-088-211000-
...PIKES PEAK/PALMER DIVIDE AND SOUTHERN FOOTHILLS...

CITY           SKY/WX    TMP DP  RH WIND       PRES   REMARKS
COLO. SPRINGS  CLOUDY    63  51  65 S8        30.40F
A. F. ACADEMY  CLOUDY    59  51  73 S3        30.40F
ELLICOTT       NOT AVBL
FALCON         CLOUDY    59  47  63 S5        30.44S
FORT CARSON    CLOUDY    63  52  65 S7        30.37F
LIMON          CLOUDY    57  46  66 E12       30.35S
MONUMENT HILL  CLOUDY    54  48  82 S7        30.41F
TRINIDAD       MOCLDY    64  56  75 E8        30.34R
$$

COZ042>045-048>051-090-091-211000-
...NORTHEAST COLORADO...

CITY           SKY/WX    TMP DP  RH WIND       PRES   REMARKS
GREELEY ARPT   MOCLDY    61  41  48 E10       30.35F
AKRON          PTCLDY    53  44  71 SE9       30.33F
BURLINGTON     PTCLDY    53  46  77 NE8       30.30S
WRAY           PTCLDY    52  45  78 NW3       30.30S
STERLING       PTCLDY    54  48  82 N6        30.32R
HOLYOKE        PTCLDY    54  46  76 NW3       30.30S
FORT MORGAN    CLOUDY    57  44  60 E3        30.35S
$$

COZ086-089-092>099-211000-
...SOUTHEAST COLORADO...

CITY           SKY/WX    TMP DP  RH WIND       PRES   REMARKS
PUEBLO         LGT RAIN  61  58  90 SE10      30.31F
LA JUNTA       MOCLDY    64  51  62 E3        30.26F
LAMAR          PTCLDY    54  48  80 NW5       30.22F
SPRINGFIELD      N/A     60  54  80 N6        30.25F
$$


USA.gov is the U.S. government's official web portal to all federal, state and local government web resources and services.